Location: Conjunto Santa Maria
(19.9513°S, 43.9599°W)
Time: 13:42:17
(UTC+00:00)

Cosmos 1076 Rocket - Pass Details

Date: 21 January 2021
Orbit: 588 x 613 km, 82.5° (Epoch: 03 March)

Event Time Altitude Azimuth Distance (km) Brightness Sun altitude
Rises 22:38:05 0° 174° (S) 2,891 7.3 -13.1°
Reaches altitude 10° 22:40:27 10° 165° (SSE) 1,982 6.3 -13.6°
Maximum altitude 22:44:32 38° 97° (E) 950 4.1 -14.4°
Enters shadow 22:46:37 23° 45° (NE) 1,297 4.6 -14.9°
